Location: ?????
(55.6500°N, 37.2500°E)
Time: 04:47:11
(UTC+00:00)

PSLV R/B - Pass Details

Date: 19 May 2025
Orbit: 586 x 683 km, 97.9° (Epoch: 19 June)

Event Time Altitude Azimuth Distance (km) Brightness Sun altitude
Rises 21:00:56 0° 17° (NNE) 2,859 8.3 -14.2°
Reaches altitude 10° 21:03:10 10° 22° (NNE) 1,942 7.1 -14.2°
Maximum altitude 21:07:17 54° 101° (E) 723 3.8 -14.3°
Enters shadow 21:09:33 24° 169° (S) 1,224 4.5 -14.3°
